607  
ASUS42 KTBW 190917  
RWRFL  
FLORIDA REGIONAL WEATHER ROUNDUP  
NATIONAL WEATHER SERVICE TAMPA BAY RUSKIN FL  
400 AM EST MON FEB 19 2018  
 
NOTE: "FAIR" INDICATES FEW OR NO CLOUDS BELOW 12,000 FEET WITH NO  
SIGNIFICANT WEATHER AND/OR S TO VISIBILITY
.  
 
FLZ001>010-012>015-112-114-115-191000-  
PANHANDLE FLORIDA  
 
CITY SKY/WX TMP DP RH WIND PRES REMARKS
 
PENSACOLA FAIR 69 67 93 SE7 30.17S  
PENSACOLA NAS FAIR 68 66 93 MISG 30.17R  
MILTON NAS MOCLDY 68 67 96 SE8 30.18S  
CRESTVIEW FAIR 66 64 93 CALM 30.21R FOG  
DUKE FIELD FAIR 67 67 100 SE3 30.19R  
VALPARAISO PTCLDY 68 68 98 S6 30.18S  
MARY ESTHER CLOUDY 69 68 98 SE7 30.17S  
PANAMA CITY FOG 63 62 97 E6 30.19R VSB 1/2  
TYNDALL AFB FAIR 63 63 100 SE5 30.21S  
APALACHICOLA FOG 66 66 100 E7 30.21F VSB 1/4  
 
STATION/POSITION SKY/WX TEMP WIND PRES WAVE SWELL
 
AIR SEA DIR/SP/G HT/PER HT/PER  
(F) (DEG/KT/KT) (MB) (FT/S) (FT/S)  
29.2N 88.2W 74 74 130/ 19/ 23 1020.7  
28.8N 86.0W 74 74 140/ 12/ 12 1021.8R 2/ 4 2/ 8  
PANAMA CITY BEAC 67 69 130/ 11/ 12 1022.8S  
TOWER C 66 130/ 8/ 8 1023.7F  
 

 
FLZ011-016>038-118-127-128-134-139-239-191000-  
NORTH FLORIDA  
 
CITY SKY/WX TMP DP RH WIND PRES REMARKS
 
MARIANNA MOCLDY 66 65 96 SE5 30.22R  
TALLAHASSEE FOG 64 64 100 CALM 30.24R VSB 1/2  
PERRY FAIR 64 61 93 E5 30.26S  
LIVE OAK CLOUDY 63 63 100 E6 30.28S  
CROSS CITY MOCLDY 63 N/A N/A E5 30.30S FOG  
LAKE CITY CLOUDY 63 63 100 SE5 30.27F  
GAINESVILLE CLOUDY 65 65 100 E5 30.29S  
WILLISTON FOG 66 66 100 CALM 30.26S VSB 1/2  
PALATKA FOG 64 64 100 NE5 30.28R VSB<1/4  
MAYPORT NAS CLOUDY 62 61 96 NE5 30.28S FOG  
JACKSONVILLE FOG 63 62 97 NE3 30.27F VSB 1  
JAX NAS FOG 64 64 100 NE5 30.28F VSB 1/4  
JAX CECIL FOG 64 64 100 CALM 30.28S VSB<1/4  
FERNANDINA BEA CLOUDY 63 61 94 N3 30.27S  
ST AUGUSTINE CLOUDY 62 61 96 N5 30.29S FOG  
PALM COAST MOCLDY 61 61 99 N3 30.26S FOG  
 
STATION/POSITION SKY/WX TEMP WIND PRES WAVE SWELL
 
AIR SEA DIR/SP/G HT/PER HT/PER  
(F) (DEG/KT/KT) (MB) (FT/S) (FT/S)  
SHELL POINT NOT AVBL  
KEATON BEACH 63 80/ 9/ 10 1024.4R  
CEDAR KEY 68 100/ 10/ 11 1024.5R  
FERNANDINA 61 63 360/ 4/ 5 1026.3F  
30.7N 81.3W 59 N/A 2/10  
MAYPORT 61 62 40/ 4/ 6 1025.3F  
31.4N 80.9W 59 58 30/ 6/ 6 1025.2F 3/ 6 3/ 6  
ST AUGUSTINE 59 59 340/ 9/ 10 1025.3R  
 

 
FLZ040-043>046-052-053-057-058-063-144-191000-  
INTERIOR CENTRAL FLORIDA  
 
CITY SKY/WX TMP DP RH WIND PRES REMARKS
 
OCALA FOG 62 62 100 NE3 30.27R VSB 1/4  
LEESBURG FAIR 68 67 96 CALM 30.26S  
SANFORD FOG 63 62 97 CALM 30.25S VSB 1/2  
ORLANDO EXEC FOG 64 64 100 CALM 30.25S VSB 1/4  
ORLANDO INTL FAIR 64 64 100 CALM 30.26R FOG  
KISSIMMEE CLOUDY 66 66 100 CALM 30.26S FOG  
WINTER HAVEN FOG 66 66 100 SE5 30.26S VSB 1/2  
BARTOW FOG 64 N/A N/A CALM 30.25S VSB<1/4  
SEBRING FAIR 64 62 91 CALM 30.24S  
OKEECHOBEE FAIR 64 63 94 CALM 30.24S  
 

 
FLZ041-047-054-059-064-141-147-191000-  
EAST CENTRAL FLORIDA  
 
CITY SKY/WX TMP DP RH WIND PRES REMARKS
 
DAYTONA BEACH FAIR 62 62 100 CALM 30.26S FOG  
DELAND CLOUDY 63 63 100 CALM 30.26R FOG  
JFK SPACE CTR FOG 64 64 100 SE3 30.25R VSB 5/8  
CAPE CANAVERAL FAIR 66 64 91 SE6 30.24S  
PATRICK AFB FAIR 70 70 99 SE9 N/A  
MELBOURNE FAIR 74 66 76 SE8 30.24S  
VERO BEACH FAIR 71 63 75 SE10 30.24S  
FT PIERCE FAIR 70 64 81 SE9 30.24R  
STUART FAIR 73 64 73 E13 30.25S  
 
STATION/POSITION SKY/WX TEMP WIND PRES WAVE SWELL
 
AIR SEA DIR/SP/G HT/PER HT/PER  
(F) (DEG/KT/KT) (MB) (FT/S) (FT/S)  
28.5N 80.2W 75 74 120/ 12/ 16 1024.4R  
TRIDENT PIER 69 70 100/ 5/ 8 1025.5S  
28.4N 80.5W 70 N/A 1/10  
27.5N 80.2W 74 N/A 3/ 4  
 

 
FLZ050-056-061-142-242-148-248-149-249-151-251-155-255-  
160-260-191000-  
WEST CENTRAL FLORIDA  
 
CITY SKY/WX TMP DP RH WIND PRES REMARKS
 
CRYSTAL RIVER CLOUDY 64 64 100 E3 30.25S  
INVERNESS CLOUDY 61 61 100 CALM 30.26S  
BROOKSVILLE CLOUDY 67 66 97 E5 30.25S FOG  
CLEARWATER AIR FAIR 68 66 94 E3 30.23S  
ST PETE CLEARW FAIR 69 67 93 E8 30.23S  
TAMPA INTL FAIR 71 66 84 E5 30.23F  
TAMPA EXEC FAIR 66 64 94 CALM 30.24S  
PLANT CITY FAIR 68 66 94 E3 30.26S  
MACDILL AFB FAIR 68 66 94 E8 30.22F  
PETER O KNIGHT FAIR N/A N/A N/A E7 30.23S  
ST PETERSBURG FAIR 70 66 87 SE13 30.21S  
SARASOTA FAIR 66 63 90 SE8 30.21S  
VENICE MOCLDY 68 64 88 E6 30.23S  
 
STATION/POSITION SKY/WX TEMP WIND PRES WAVE SWELL
 
AIR SEA DIR/SP/G HT/PER HT/PER  
(F) (DEG/KT/KT) (MB) (FT/S) (FT/S)  
27.3N 84.2W 73 N/A 2/ 6  
CLEARWATER BEACH 70 71 100/ 6/ 10 1023.5R  
MIDDLE TAMPA BAY 68 130/ 12/ 14 1023.4F  
VENICE 68 72 100/ 4/ 6 1023.4R  
 

 
FLZ066-069-070-075>078-162-262-165-265-191000-  
SOUTHWEST FLORIDA AND KEYS  
 
CITY SKY/WX TMP DP RH WIND PRES REMARKS
 
PUNTA GORDA FAIR 63 61 93 E5 30.24S  
FT MYERS FAIR 66 64 93 E6 30.21S  
SOUTHWEST INTL FAIR 64 64 100 NE6 30.21S  
NAPLES FAIR 65 64 97 E6 30.20S  
MARCO ISLAND FAIR 64 63 96 NE6 30.21S  
IMMOKALEE FAIR 63 61 94 E5 30.22F  
MARATHON MOCLDY 75 65 70 E12G21 30.17S  
KEY WEST NAS FAIR 73 70 90 E10 30.17S  
KEY WEST INTL FAIR 74 67 78 E7 30.17S  
 
STATION/POSITION SKY/WX TEMP WIND PRES WAVE SWELL
 
AIR SEA DIR/SP/G HT/PER HT/PER  
(F) (DEG/KT/KT) (MB) (FT/S) (FT/S)  
NAPLES 74 90/ 2/ 6 1022.7F  
DRY TORTUGAS 73 100/ 17/ 18 1021.2F  
SAND KEY 75 1021.8F  
LONG KEY 75 100/ 17 N/A  
MOLASSES REEF 75 76 80/ 15/ 17 1022.2F  
 

 
FLZ067-068-071>074-168-172>174-191000-  
SOUTHEAST FLORIDA  
 
CITY SKY/WX TMP DP RH WIND PRES REMARKS
 
W PALM BEACH FAIR 74 63 68 E15 30.23S  
FT LAUDER-EXEC FAIR 74 65 73 E17 30.21S  
FT LAUDERDALE MOCLDY 74 66 76 E20 30.20S  
POMPANO BEACH FAIR 75 65 70 E13 30.21S  
PEMBROKE PINES FAIR 74 63 68 E14 30.22S  
OPA LOCKA FAIR 73 63 70 E12 30.21S  
MIAMI FAIR 75 63 66 E15 30.21S  
WEST KENDALL FAIR 71 62 73 E12 30.20S  
HOMESTEAD FAIR 74 65 73 E14 30.19S  
 
STATION/POSITION SKY/WX TEMP WIND PRES WAVE SWELL
 
AIR SEA DIR/SP/G HT/PER HT/PER  
(F) (DEG/KT/KT) (MB) (FT/S) (FT/S)  
PORT EVERGLADES 75 100/ 6/ 16 1023.0  
VIRGINIA KEY 75 78 80/ 15/ 18 1021.9F  
LAKE WORTH 75 76 100/ 17/ 20 1024.4R  
FOWEY ROCKS 75 75 80/ 21/ 23 1023.2S  
SETTLEMENT POINT 74 90/ 15/ 19 1024.1R  
 

 
 
 
 
CLICK HERE TO GO TO PREVIOUS BULLETINS.

The Nexlab FL Page Main Text Page